Time,TemperatureF,DewpointF,PressureIn,WindDirection,WindDirectionDegrees,WindSpeedMPH,WindSpeedGustMPH,Humidity,HourlyPrecipIn,Conditions,Clouds,dailyrainin,SoftwareType,DateUTC
2013-04-01 00:03:00,37.9,8.6,29.88,ESE,114,7.0,12.5,29,0.00,,,-99.99,FreeWX 2.04,2013-04-01 06:03:00,
2013-04-01 00:13:00,37.6,8.2,29.88,ESE,121,8.0,13.4,29,0.00,,,-99.99,FreeWX 2.04,2013-04-01 06:13:00,
2013-04-01 00:23:00,37.4,8.1,29.88,ESE,117,7.0,13.0,29,0.00,,,-99.99,FreeWX 2.04,2013-04-01 06:23:00,
2013-04-01 00:33:00,37.2,7.9,29.88,ESE,112,7.0,11.2,29,0.00,,,-99.99,FreeWX 2.04,2013-04-01 06:33:00,
2013-04-01 00:43:00,37.2,7.9,29.88,East,100,6.0,10.1,29,0.00,,,-99.99,FreeWX 2.04,2013-04-01 06:43:00,
2013-04-01 00:53:00,37.2,7.9,29.88,ESE,105,7.0,10.5,29,0.00,,,-99.99,FreeWX 2.04,2013-04-01 06:53:00,
2013-04-01 01:03:00,36.9,7.7,29.88,ESE,110,7.0,11.2,29,0.00,,,-99.99,FreeWX 2.04,2013-04-01 07:03:00,
2013-04-01 01:13:00,36.7,8.2,29.88,ESE,119,7.0,10.5,30,0.00,,,-99.99,FreeWX 2.04,2013-04-01 07:13:00,
2013-04-01 01:23:00,36.9,8.4,29.88,ESE,113,7.0,10.5,30,0.00,,,-99.99,FreeWX 2.04,2013-04-01 07:23:00,
2013-04-01 01:33:00,36.3,7.9,29.88,ESE,109,5.0,9.6,30,0.00,,,-99.99,FreeWX 2.04,2013-04-01 07:33:00,
2013-04-01 01:43:00,35.4,7.9,29.88,East,79,4.0,7.8,31,0.00,,,-99.99,FreeWX 2.04,2013-04-01 07:43:00,
2013-04-01 01:53:00,35.4,7.9,29.88,East,90,4.0,6.7,31,0.00,,,-99.99,FreeWX 2.04,2013-04-01 07:53:00,
2013-04-01 02:03:00,35.6,8.1,29.88,East,95,4.0,6.9,31,0.00,,,-99.99,FreeWX 2.04,2013-04-01 08:03:00,
2013-04-01 02:13:00,35.2,7.7,29.88,ESE,110,4.0,7.8,31,0.00,,,-99.99,FreeWX 2.04,2013-04-01 08:13:00,
2013-04-01 02:24:00,36.1,8.4,29.88,ESE,118,5.0,11.0,31,0.00,,,-99.99,FreeWX 2.04,2013-04-01 08:24:00,
2013-04-01 02:34:00,37.0,7.7,29.88,ESE,117,6.0,8.7,29,0.00,,,-99.99,FreeWX 2.04,2013-04-01 08:34:00,
2013-04-01 02:44:00,36.7,7.5,29.88,ESE,118,6.0,8.7,29,0.00,,,-99.99,FreeWX 2.04,2013-04-01 08:44:00,
2013-04-01 02:54:00,36.1,7.7,29.88,ESE,120,5.0,9.6,30,0.00,,,-99.99,FreeWX 2.04,2013-04-01 08:54:00,
2013-04-01 03:04:00,35.1,6.8,29.88,ESE,109,4.0,9.2,30,0.00,,,-99.99,FreeWX 2.04,2013-04-01 09:04:00,
2013-04-01 03:14:00,34.3,7.5,29.88,ESE,113,2.0,6.9,32,0.00,,,-99.99,FreeWX 2.04,2013-04-01 09:14:00,
2013-04-01 03:24:00,33.8,8.4,29.88,SE,144,2.0,6.3,34,0.00,,,-99.99,FreeWX 2.04,2013-04-01 09:24:00,
2013-04-01 03:34:00,36.5,8.1,29.88,SE,134,6.0,11.0,30,0.00,,,-99.99,FreeWX 2.04,2013-04-01 09:34:00,
2013-04-01 03:44:00,36.7,7.5,29.88,ESE,118,5.0,8.3,29,0.00,,,-99.99,FreeWX 2.04,2013-04-01 09:44:00,
2013-04-01 03:54:00,36.5,8.1,29.88,ESE,120,4.0,7.8,30,0.00,,,-99.99,FreeWX 2.04,2013-04-01 09:54:00,
2013-04-01 04:04:00,36.7,7.5,29.88,SE,139,5.0,8.7,29,0.00,,,-99.99,FreeWX 2.04,2013-04-01 10:04:00,
2013-04-01 04:14:00,34.5,7.7,29.88,SSE,163,6.0,9.6,32,0.00,,,-99.99,FreeWX 2.04,2013-04-01 10:14:00,
2013-04-01 04:24:00,35.6,8.1,29.88,ESE,120,4.0,8.7,31,0.00,,,-99.99,FreeWX 2.04,2013-04-01 10:24:00,
2013-04-01 04:34:00,36.0,7.5,29.88,ESE,118,5.0,8.7,30,0.00,,,-99.99,FreeWX 2.04,2013-04-01 10:34:00,
2013-04-01 04:44:00,36.0,7.5,29.88,SE,128,6.0,11.2,30,0.00,,,-99.99,FreeWX 2.04,2013-04-01 10:44:00,
2013-04-01 04:54:00,36.0,7.5,29.85,ESE,112,5.0,10.1,30,0.00,,,-99.99,FreeWX 2.04,2013-04-01 10:54:00,
2013-04-01 05:04:00,36.3,7.9,29.85,ESE,111,6.0,11.2,30,0.00,,,-99.99,FreeWX 2.04,2013-04-01 11:04:00,
2013-04-01 05:14:00,36.0,7.5,29.88,ESE,106,7.0,11.2,30,0.00,,,-99.99,FreeWX 2.04,2013-04-01 11:14:00,
2013-04-01 05:24:00,36.0,7.5,29.85,ESE,109,7.0,12.1,30,0.00,,,-99.99,FreeWX 2.04,2013-04-01 11:24:00,
2013-04-01 05:34:00,36.1,7.7,29.85,ESE,117,6.0,11.0,30,0.00,,,-99.99,FreeWX 2.04,2013-04-01 11:34:00,
2013-04-01 05:44:00,36.3,7.2,29.85,ESE,120,7.0,11.6,29,0.00,,,-99.99,FreeWX 2.04,2013-04-01 11:44:00,
2013-04-01 05:54:00,36.3,7.2,29.85,ESE,121,8.0,13.0,29,0.00,,,-99.99,FreeWX 2.04,2013-04-01 11:54:00,
2013-04-01 06:04:00,36.1,7.0,29.85,ESE,115,8.0,12.1,29,0.00,,,-99.99,FreeWX 2.04,2013-04-01 12:04:00,
2013-04-01 06:14:00,36.1,7.0,29.85,ESE,116,8.0,13.4,29,0.00,,,-99.99,FreeWX 2.04,2013-04-01 12:14:00,
2013-04-01 06:24:00,36.1,7.0,29.85,ESE,114,7.0,12.1,29,0.00,,,-99.99,FreeWX 2.04,2013-04-01 12:24:00,
2013-04-01 06:34:00,36.1,7.0,29.85,ESE,112,7.0,10.5,29,0.00,,,-99.99,FreeWX 2.04,2013-04-01 12:34:00,
2013-04-01 06:44:00,36.1,7.0,29.85,ESE,116,7.0,12.1,29,0.00,,,-99.99,FreeWX 2.04,2013-04-01 12:44:00,
2013-04-01 06:54:00,36.0,6.8,29.85,ESE,113,8.0,11.6,29,0.00,,,-99.99,FreeWX 2.04,2013-04-01 12:54:00,
2013-04-01 07:04:00,35.8,6.6,29.85,ESE,106,7.0,13.0,29,0.00,,,-99.99,FreeWX 2.04,2013-04-01 13:04:00,
2013-04-01 07:14:00,35.1,6.8,29.85,East,93,6.0,11.0,30,0.00,,,-99.99,FreeWX 2.04,2013-04-01 13:14:00,
2013-04-01 07:24:00,35.6,7.3,29.85,ESE,106,6.0,10.1,30,0.00,,,-99.99,FreeWX 2.04,2013-04-01 13:24:00,
2013-04-01 07:34:00,35.8,7.3,29.85,ESE,109,6.0,10.1,30,0.00,,,-99.99,FreeWX 2.04,2013-04-01 13:34:00,
2013-04-01 07:44:00,36.1,7.0,29.85,ESE,113,7.0,12.5,29,0.00,,,-99.99,FreeWX 2.04,2013-04-01 13:44:00,
2013-04-01 07:54:00,36.9,7.7,29.85,ESE,109,7.0,10.1,29,0.00,,,-99.99,FreeWX 2.04,2013-04-01 13:54:00,
2013-04-01 08:04:00,38.8,7.0,29.85,ESE,110,7.0,12.1,26,0.00,,,-99.99,FreeWX 2.04,2013-04-01 14:04:00,
2013-04-01 08:14:00,40.3,5.5,29.85,ESE,110,7.0,11.0,23,0.00,,,-99.99,FreeWX 2.04,2013-04-01 14:14:00,
2013-04-01 08:24:00,41.9,4.8,29.85,ESE,107,6.0,10.1,21,0.00,,,-99.99,FreeWX 2.04,2013-04-01 14:24:00,
2013-04-01 08:34:00,43.0,4.6,29.85,East,98,6.0,12.1,20,0.00,,,-99.99,FreeWX 2.04,2013-04-01 14:34:00,
2013-04-01 08:44:00,45.0,2.8,29.85,ESE,118,6.0,12.1,17,0.00,,,-99.99,FreeWX 2.04,2013-04-01 14:44:00,
2013-04-01 08:54:00,45.9,3.6,29.85,SE,129,8.0,12.5,17,0.00,,,-99.99,FreeWX 2.04,2013-04-01 14:54:00,
2013-04-01 09:04:00,47.3,3.4,29.85,SE,132,7.0,10.5,16,0.00,,,-99.99,FreeWX 2.04,2013-04-01 15:04:00,
2013-04-01 09:14:00,48.2,4.1,29.85,SE,127,8.0,13.4,16,0.00,,,-99.99,FreeWX 2.04,2013-04-01 15:14:00,
2013-04-01 09:24:00,48.7,4.6,29.85,SE,131,9.0,14.8,16,0.00,,,-99.99,FreeWX 2.04,2013-04-01 15:24:00,
2013-04-01 09:34:00,49.3,5.0,29.85,SE,130,9.0,14.3,16,0.00,,,-99.99,FreeWX 2.04,2013-04-01 15:34:00,
2013-04-01 09:44:00,49.6,5.4,29.85,SE,133,9.0,13.4,16,0.00,,,-99.99,FreeWX 2.04,2013-04-01 15:44:00,
2013-04-01 09:54:00,50.2,5.7,29.85,SE,128,9.0,15.2,16,0.00,,,-99.99,FreeWX 2.04,2013-04-01 15:54:00,
2013-04-01 10:04:00,50.9,6.3,29.85,SE,128,8.0,13.9,16,0.00,,,-99.99,FreeWX 2.04,2013-04-01 16:04:00,
2013-04-01 10:14:00,51.3,2.1,29.85,SE,126,9.0,14.8,13,0.00,,,-99.99,FreeWX 2.04,2013-04-01 16:14:00,
2013-04-01 10:24:00,51.6,2.5,29.85,SE,128,10.0,14.8,13,0.00,,,-99.99,FreeWX 2.04,2013-04-01 16:24:00,
2013-04-01 10:34:00,52.9,3.4,29.85,ESE,121,8.0,13.0,13,0.00,,,-99.99,FreeWX 2.04,2013-04-01 16:34:00,
2013-04-01 10:44:00,53.2,3.7,29.85,ESE,122,8.0,11.6,13,0.00,,,-99.99,FreeWX 2.04,2013-04-01 16:44:00,
2013-04-01 10:54:00,54.9,3.2,29.85,SE,126,6.0,13.4,12,0.00,,,-99.99,FreeWX 2.04,2013-04-01 16:54:00,
2013-04-01 11:04:00,55.4,3.7,29.85,SE,126,7.0,11.6,12,0.00,,,-99.99,FreeWX 2.04,2013-04-01 17:04:00,
2013-04-01 11:14:00,56.1,4.3,29.85,ESE,121,6.0,11.6,12,0.00,,,-99.99,FreeWX 2.04,2013-04-01 17:14:00,
2013-04-01 11:25:00,57.7,5.5,29.85,SE,126,5.0,8.7,12,0.00,,,-99.99,FreeWX 2.04,2013-04-01 17:25:00,
2013-04-01 11:35:00,57.6,5.4,29.85,ESE,103,4.0,7.8,12,0.00,,,-99.99,FreeWX 2.04,2013-04-01 17:35:00,
2013-04-01 11:45:00,59.0,6.4,29.85,ESE,108,4.0,6.9,12,0.00,,,-99.99,FreeWX 2.04,2013-04-01 17:45:00,
2013-04-01 11:55:00,58.5,6.1,29.85,East,86,1.0,5.8,12,0.00,,,-99.99,FreeWX 2.04,2013-04-01 17:55:00,
2013-04-01 12:05:00,54.3,4.5,29.85,ENE,66,4.0,10.1,13,0.00,,,-99.99,FreeWX 2.04,2013-04-01 18:05:00,
2013-04-01 12:15:00,50.7,3.2,29.85,NNW,344,9.0,15.2,14,0.00,,,-99.99,FreeWX 2.04,2013-04-01 18:15:00,
2013-04-01 12:25:00,51.3,6.6,29.85,NNW,339,10.0,13.9,16,0.00,,,-99.99,FreeWX 2.04,2013-04-01 18:25:00,
2013-04-01 12:35:00,50.0,5.5,29.85,NNW,343,9.0,13.4,16,0.00,,,-99.99,FreeWX 2.04,2013-04-01 18:35:00,
2013-04-01 12:45:00,50.2,5.7,29.85,NNW,342,8.0,12.5,16,0.00,,,-99.99,FreeWX 2.04,2013-04-01 18:45:00,
2013-04-01 12:55:00,50.5,6.1,29.85,NNW,343,8.0,12.1,16,0.00,,,-99.99,FreeWX 2.04,2013-04-01 18:55:00,
2013-04-01 13:06:00,50.5,6.1,29.85,NNW,343,9.0,12.5,16,0.00,,,-99.99,FreeWX 2.04,2013-04-01 19:06:00,
2013-04-01 13:16:00,50.5,6.1,29.85,NNW,342,8.0,12.1,16,0.00,,,-99.99,FreeWX 2.04,2013-04-01 19:16:00,
2013-04-01 13:28:00,50.9,6.3,29.85,NNW,340,6.0,9.2,16,0.00,,,-99.99,FreeWX 2.04,2013-04-01 19:28:00,
2013-04-01 13:38:00,51.1,1.9,29.85,NNW,337,6.0,8.7,13,0.00,,,-99.99,FreeWX 2.04,2013-04-01 19:38:00,
2013-04-01 13:48:00,51.1,6.4,29.85,NNW,327,5.0,9.6,16,0.00,,,-99.99,FreeWX 2.04,2013-04-01 19:48:00,
2013-04-01 13:58:00,51.4,6.8,29.85,NNW,329,5.0,8.3,16,0.00,,,-99.99,FreeWX 2.04,2013-04-01 19:58:00,
2013-04-01 14:09:00,52.0,7.2,29.85,NNW,339,5.0,7.8,16,0.00,,,-99.99,FreeWX 2.04,2013-04-01 20:09:00,
2013-04-01 14:19:00,53.2,6.8,29.85,NNW,331,4.0,7.8,15,0.00,,,-99.99,FreeWX 2.04,2013-04-01 20:19:00,
2013-04-01 14:29:00,52.2,7.3,29.85,NNW,334,5.0,7.4,16,0.00,,,-99.99,FreeWX 2.04,2013-04-01 20:29:00,
2013-04-01 14:39:00,52.2,7.3,29.85,NNW,333,6.0,9.2,16,0.00,,,-99.99,FreeWX 2.04,2013-04-01 20:39:00,
2013-04-01 14:49:00,53.1,6.6,29.85,NW,326,6.0,10.5,15,0.00,,,-99.99,FreeWX 2.04,2013-04-01 20:49:00,
2013-04-01 14:59:00,53.1,6.6,29.85,NNW,330,6.0,10.5,15,0.00,,,-99.99,FreeWX 2.04,2013-04-01 20:59:00,
2013-04-01 15:09:00,51.6,7.0,29.82,NNW,342,8.0,12.1,16,0.00,,,-99.99,FreeWX 2.04,2013-04-01 21:09:00,
2013-04-01 15:19:00,52.5,7.7,29.82,NNW,343,8.0,12.1,16,0.00,,,-99.99,FreeWX 2.04,2013-04-01 21:19:00,
2013-04-01 15:30:00,52.9,6.4,29.82,NNW,346,9.0,12.1,15,0.00,,,-99.99,FreeWX 2.04,2013-04-01 21:30:00,
2013-04-01 15:40:00,52.2,7.3,29.82,NNW,346,9.0,13.9,16,0.00,,,-99.99,FreeWX 2.04,2013-04-01 21:40:00,
2013-04-01 15:50:00,52.0,2.7,29.82,NNW,347,8.0,12.5,13,0.00,,,-99.99,FreeWX 2.04,2013-04-01 21:50:00,
2013-04-01 16:00:00,51.8,2.5,29.82,NNW,347,7.0,11.2,13,0.00,,,-99.99,FreeWX 2.04,2013-04-01 22:00:00,
2013-04-01 16:10:00,51.6,2.5,29.82,NNW,341,7.0,11.0,13,0.00,,,-99.99,FreeWX 2.04,2013-04-01 22:10:00,
2013-04-01 16:20:00,51.1,6.4,29.82,NNW,337,6.0,9.6,16,0.00,,,-99.99,FreeWX 2.04,2013-04-01 22:20:00,
2013-04-01 16:31:00,51.4,6.8,29.82,NNW,332,6.0,8.7,16,0.00,,,-99.99,FreeWX 2.04,2013-04-01 22:31:00,
2013-04-01 16:41:00,51.4,6.8,29.82,NNW,329,6.0,8.3,16,0.00,,,-99.99,FreeWX 2.04,2013-04-01 22:41:00,
2013-04-01 17:01:00,52.5,7.7,29.82,NNW,335,6.0,9.2,16,0.00,,,-99.99,FreeWX 2.04,2013-04-01 23:01:00,
2013-04-01 17:11:00,52.3,7.5,29.82,NNW,340,6.0,10.1,16,0.00,,,-99.99,FreeWX 2.04,2013-04-01 23:11:00,
2013-04-01 17:21:00,52.0,7.2,29.82,NNW,334,8.0,11.0,16,0.00,,,-99.99,FreeWX 2.04,2013-04-01 23:21:00,
2013-04-01 17:31:00,52.0,7.2,29.82,NNW,342,7.0,10.5,16,0.00,,,-99.99,FreeWX 2.04,2013-04-01 23:31:00,
2013-04-01 17:42:00,51.8,7.0,29.82,NNW,342,7.0,10.5,16,0.00,,,-99.99,FreeWX 2.04,2013-04-01 23:42:00,
2013-04-01 17:52:00,51.6,7.0,29.82,NNW,346,7.0,9.6,16,0.00,,,-99.99,FreeWX 2.04,2013-04-01 23:52:00,
2013-04-01 18:02:00,52.0,2.7,29.82,NNW,346,7.0,12.1,13,0.00,,,-99.99,FreeWX 2.04,2013-04-02 00:02:00,
2013-04-01 18:12:00,51.6,7.0,29.82,NNW,342,7.0,9.6,16,0.00,,,-99.99,FreeWX 2.04,2013-04-02 00:12:00,
2013-04-01 18:22:00,51.6,2.5,29.82,NNW,343,6.0,10.1,13,0.00,,,-99.99,FreeWX 2.04,2013-04-02 00:22:00,
2013-04-01 18:32:00,50.2,5.7,29.82,NNW,328,5.0,8.3,16,0.00,,,-99.99,FreeWX 2.04,2013-04-02 00:32:00,
2013-04-01 18:42:00,48.9,4.8,29.82,NNW,328,6.0,7.4,16,0.00,,,-99.99,FreeWX 2.04,2013-04-02 00:42:00,
2013-04-01 18:52:00,47.8,3.9,29.82,NW,325,5.0,6.7,16,0.00,,,-99.99,FreeWX 2.04,2013-04-02 00:52:00,
2013-04-01 19:02:00,48.7,4.6,29.82,NW,324,3.0,5.8,16,0.00,,,-99.99,FreeWX 2.04,2013-04-02 01:02:00,
2013-04-01 19:12:00,48.9,4.8,29.82,North,-999,0.0,4.9,16,0.00,,,-99.99,FreeWX 2.04,2013-04-02 01:12:00,
2013-04-01 19:22:00,48.4,4.3,29.82,North,-999,0.0,3.6,16,0.00,,,-99.99,FreeWX 2.04,2013-04-02 01:22:00,
2013-04-01 19:32:00,48.2,4.1,29.82,North,-999,0.0,4.0,16,0.00,,,-99.99,FreeWX 2.04,2013-04-02 01:32:00,
2013-04-01 19:42:00,46.9,6.8,29.82,North,-999,0.0,0.0,19,0.00,,,-99.99,FreeWX 2.04,2013-04-02 01:42:00,
2013-04-01 19:52:00,43.7,5.4,29.82,North,-999,0.0,4.0,20,0.00,,,-99.99,FreeWX 2.04,2013-04-02 01:52:00,
2013-04-01 20:02:00,42.1,8.8,29.82,ESE,106,4.0,6.7,25,0.00,,,-99.99,FreeWX 2.04,2013-04-02 02:02:00,
2013-04-01 20:12:00,41.2,10.6,29.85,ESE,109,4.0,6.7,28,0.00,,,-99.99,FreeWX 2.04,2013-04-02 02:12:00,
2013-04-01 20:22:00,41.0,10.4,29.85,ESE,104,5.0,8.7,28,0.00,,,-99.99,FreeWX 2.04,2013-04-02 02:22:00,
2013-04-01 20:43:00,40.3,10.6,29.85,East,94,5.0,8.7,29,0.00,,,-99.99,FreeWX 2.04,2013-04-02 02:43:00,
2013-04-01 20:53:00,39.9,10.2,29.85,East,93,5.0,7.8,29,0.00,,,-99.99,FreeWX 2.04,2013-04-02 02:53:00,
2013-04-01 21:03:00,39.0,10.2,29.85,East,91,5.0,8.7,30,0.00,,,-99.99,FreeWX 2.04,2013-04-02 03:03:00,
2013-04-01 21:13:00,39.2,10.4,29.85,East,83,5.0,11.0,30,0.00,,,-99.99,FreeWX 2.04,2013-04-02 03:13:00,
2013-04-01 21:23:00,39.6,10.8,29.85,East,90,6.0,9.2,30,0.00,,,-99.99,FreeWX 2.04,2013-04-02 03:23:00,
2013-04-01 21:33:00,39.2,10.4,29.85,East,91,5.0,8.7,30,0.00,,,-99.99,FreeWX 2.04,2013-04-02 03:33:00,
2013-04-01 21:43:00,39.2,10.4,29.85,East,96,6.0,9.6,30,0.00,,,-99.99,FreeWX 2.04,2013-04-02 03:43:00,
2013-04-01 21:53:00,38.7,10.6,29.85,East,91,5.0,10.5,31,0.00,,,-99.99,FreeWX 2.04,2013-04-02 03:53:00,
2013-04-01 22:03:00,39.2,10.4,29.85,East,95,5.0,8.7,30,0.00,,,-99.99,FreeWX 2.04,2013-04-02 04:03:00,
2013-04-01 22:13:00,39.9,10.9,29.85,East,98,6.0,11.0,30,0.00,,,-99.99,FreeWX 2.04,2013-04-02 04:13:00,
2013-04-01 22:23:00,39.2,10.4,29.85,East,94,6.0,11.2,30,0.00,,,-99.99,FreeWX 2.04,2013-04-02 04:23:00,
2013-04-01 22:33:00,38.7,9.9,29.85,East,92,5.0,8.3,30,0.00,,,-99.99,FreeWX 2.04,2013-04-02 04:33:00,
2013-04-01 22:43:00,38.5,9.9,29.85,ESE,110,5.0,8.7,30,0.00,,,-99.99,FreeWX 2.04,2013-04-02 04:43:00,
2013-04-01 22:53:00,37.4,10.2,29.85,East,98,4.0,6.7,32,0.00,,,-99.99,FreeWX 2.04,2013-04-02 04:53:00,
2013-04-01 23:03:00,37.2,10.8,29.85,East,96,3.0,6.9,33,0.00,,,-99.99,FreeWX 2.04,2013-04-02 05:03:00,
2013-04-01 23:13:00,37.0,10.6,29.85,East,96,3.0,6.3,33,0.00,,,-99.99,FreeWX 2.04,2013-04-02 05:13:00,
2013-04-01 23:23:00,37.2,10.8,29.85,ESE,112,2.0,5.4,33,0.00,,,-99.99,FreeWX 2.04,2013-04-02 05:23:00,
2013-04-01 23:33:00,37.4,12.2,29.85,SE,135,2.0,9.6,35,0.00,,,-99.99,FreeWX 2.04,2013-04-02 05:33:00,
2013-04-01 23:43:00,36.1,12.4,29.85,East,99,5.0,7.4,37,0.00,,,-99.99,FreeWX 2.04,2013-04-02 05:43:00,
2013-04-01 23:53:00,35.8,12.7,29.85,East,96,4.0,6.7,38,0.00,,,-99.99,FreeWX 2.04,2013-04-02 05:53:00,